2023/10/27 00:00:00,23.7, 8.1
2023/10/27 00:10:00,23.6, 8.0
2023/10/27 00:20:00,23.3, 8.0
2023/10/27 00:30:00,23.4, 7.2
2023/10/27 00:40:00,23.3, 7.9
2023/10/27 00:50:00,23.5, 7.8
2023/10/27 01:00:00,23.6, 7.9
2023/10/27 01:10:00,23.6, 7.8
2023/10/27 01:20:00,23.6, 7.9
2023/10/27 01:30:00,23.6, 7.8
2023/10/27 01:40:00,23.7, 7.8
2023/10/27 01:50:00,23.6, 8.0
2023/10/27 02:00:00,23.4, 7.8
2023/10/27 02:10:00,23.6, 7.9
2023/10/27 02:20:00,23.4, 7.7
2023/10/27 02:30:00,23.6, 7.7
2023/10/27 02:40:00,23.4, 7.7
2023/10/27 02:50:00,23.5, 7.6
2023/10/27 03:00:00,23.5, 7.7
2023/10/27 03:10:00,23.5, 7.7
2023/10/27 03:20:00,23.4, 7.8
2023/10/27 03:30:00,23.5, 7.9
2023/10/27 03:40:00,23.0, 8.7
2023/10/27 03:50:00,23.4, 7.8
2023/10/27 04:00:00,23.3, 8.0
2023/10/27 04:10:00,23.0, 8.1
2023/10/27 04:20:00,23.3, 8.7
2023/10/27 04:30:00,23.5, 8.3
2023/10/27 04:40:00,23.4, 8.6
2023/10/27 04:50:00,23.6, 8.8
2023/10/27 05:00:00,23.5, 8.9
2023/10/27 05:10:00,23.6, 9.0
2023/10/27 05:20:00,23.4, 8.9
2023/10/27 05:30:00,23.7, 9.0
2023/10/27 05:40:00,---, 8.9
2023/10/27 05:50:00,21.9, 8.9
2023/10/27 06:00:00,15.0, 9.0
2023/10/27 06:10:00,22.9, 9.1
2023/10/27 06:20:00,22.8, 8.9
2023/10/27 06:30:00,23.2, 9.0
2023/10/27 06:40:00,23.0, 9.0
2023/10/27 06:50:00,23.2, 9.2
2023/10/27 07:00:00,---, 9.6
2023/10/27 07:10:00,23.3, 9.9
2023/10/27 07:20:00,23.7,10.3
2023/10/27 07:30:00,23.8,10.5
2023/10/27 07:40:00,23.6,10.5
2023/10/27 07:50:00,23.6,11.1
2023/10/27 08:00:00,23.7,11.3
2023/10/27 08:10:00,23.8,12.4
2023/10/27 08:20:00,24.1,12.5
2023/10/27 08:30:00,24.3,13.2
2023/10/27 08:40:00,24.6,13.1
2023/10/27 08:50:00,24.6,12.8
2023/10/27 09:00:00,24.5,12.8
2023/10/27 09:10:00,24.4,12.7
2023/10/27 09:20:00,24.4,12.6
2023/10/27 09:30:00,24.5,12.3
2023/10/27 09:40:00,24.5,12.4
2023/10/27 09:50:00,24.5,12.1
2023/10/27 10:00:00,24.4,12.2
2023/10/27 10:10:00,24.4,12.0
2023/10/27 10:20:00,24.3,12.1
2023/10/27 10:30:00,24.5,12.0
2023/10/27 10:40:00,24.5,11.7
2023/10/27 10:50:00,24.5,12.0
2023/10/27 11:00:00,24.6,12.3
2023/10/27 11:10:00,24.8,12.3
2023/10/27 11:20:00,24.7,12.1
2023/10/27 11:30:00,24.4,11.8
2023/10/27 11:40:00,24.0,11.8
2023/10/27 11:50:00,23.9,11.8
2023/10/27 12:00:00,24.0,11.6
2023/10/27 12:10:00,23.6,11.3
2023/10/27 12:20:00,23.2,11.1
2023/10/27 12:30:00,22.9,11.1
2023/10/27 12:40:00,22.3,11.1
2023/10/27 12:50:00,23.2,11.3
2023/10/27 13:00:00,23.1,11.3
2023/10/27 13:10:00,23.2,11.2
2023/10/27 13:20:00,23.4,11.5
2023/10/27 13:30:00,23.0,11.9
2023/10/27 13:40:00,23.3,12.0
2023/10/27 13:50:00,23.6,12.3
2023/10/27 14:00:00,23.6,12.2
2023/10/27 14:10:00,23.8,12.4
2023/10/27 14:20:00,24.0,12.9
2023/10/27 14:30:00,24.1,12.9
2023/10/27 14:40:00,24.6,13.8
2023/10/27 14:50:00,24.9,14.0
2023/10/27 15:00:00,25.0,13.7
2023/10/27 15:10:00,25.0,13.2
2023/10/27 15:20:00,25.0,13.2
2023/10/27 15:30:00,25.1,13.4
2023/10/27 15:40:00,25.2,13.8
2023/10/27 15:50:00,25.5,12.9
2023/10/27 16:00:00,25.4,13.0
2023/10/27 16:10:00,25.1,12.8
2023/10/27 16:20:00,25.1,12.5
2023/10/27 16:30:00,24.9,11.9
2023/10/27 16:40:00,24.9,11.8
2023/10/27 16:50:00,24.7,11.3
2023/10/27 17:00:00,24.7,11.2
2023/10/27 17:10:00,24.5,10.7
2023/10/27 17:20:00,24.4,10.7
2023/10/27 17:30:00,24.2,10.7
2023/10/27 17:40:00,24.2,10.2
2023/10/27 17:50:00,24.2,10.3
2023/10/27 18:00:00,24.1,10.2
2023/10/27 18:10:00,24.0,10.5
2023/10/27 18:20:00,22.5,10.1
2023/10/27 18:30:00,21.2,10.0
2023/10/27 18:40:00,21.9, 9.7
2023/10/27 18:50:00,22.5, 9.6
2023/10/27 19:00:00,22.3, 9.7
2023/10/27 19:10:00,22.4, 9.6
2023/10/27 19:20:00,22.6, 9.6
2023/10/27 19:30:00,22.6, 9.5
2023/10/27 19:40:00,21.8, 9.6
2023/10/27 19:50:00,21.8, 9.4
2023/10/27 20:00:00,22.0, 9.2
2023/10/27 20:10:00,21.9, 8.8
2023/10/27 20:20:00,22.7, 8.9
2023/10/27 20:30:00,22.7, 9.2
2023/10/27 20:40:00,22.7, 9.2
2023/10/27 20:50:00,22.6, 9.2
2023/10/27 21:00:00,22.6, 9.1
2023/10/27 21:10:00,22.2, 8.5
2023/10/27 21:20:00,21.9, 8.4
2023/10/27 21:30:00,21.8, 8.8
2023/10/27 21:40:00,21.8, 8.3
2023/10/27 21:50:00,21.4, 8.5
2023/10/27 22:00:00,20.5, 8.7
2023/10/27 22:10:00,15.2, 9.2
2023/10/27 22:20:00,18.9, 9.0
2023/10/27 22:30:00,20.9, 9.1
2023/10/27 22:40:00,21.9, 9.3
2023/10/27 22:50:00,22.4, 9.4
2023/10/27 23:00:00,18.9, 9.5
2023/10/27 23:10:00,20.6, 9.6
2023/10/27 23:20:00,20.6, 9.6
2023/10/27 23:30:00,20.6, 9.8
2023/10/27 23:40:00,15.3, 9.7
2023/10/27 23:50:00,---,10.0
